Content
SEND FEEDBACK

Daily
Averages
Monthly
Summary
United States of America

NEW YORK - UPPER EAST SIDE, NEW YORK


Home > North America > United States > New York
Elevation: 132 feet     Latitude: 40 47N     Longitude: 073 58W

WEATHER
 
SELECT A DAY
Number of Records: 148,109;   Date Range: 11/1/95 - 7/29/14
 
SHARE

PRINT THIS DATA

[ ← Previous Day ]
WEATHER ALMANAC - MARCH 5, 2013
[ Next Day → ]
[ °C ]   °F
Weather ElementAverageHighLow
Temperature39.9 °F48.9 °F (2:51 pm)30.9 °F (6:51 am)
Dewpoint22.2 °F26.1 °F (11:51 pm)19 °F (1:51 am)
Humidity50.2 %64 % (6:51 am)37 % (3:51 pm)
Barometer29.98 in30.03 in (8:51 am)29.92 in (1:51 am)
Wind Speed7 mph12.7 mph (1:51 am)
Wind Gust24.2 mph (2:51 am)
Weather ElementAverage
Visibility10 mi
Wind DirectionESE (98.3 °)

Weather ElementTotal
Precipitation---
Heating Degree Days25.1 (Base 65)
Averaged from 23 records on March 5, 2013
WEATHER CONDITIONS BREAKOUT
WIND DIRECTION BREAKOUT
WEATHER BY HOUR - MARCH 5, 2013
[ °C ]   °F
Local TimeTemperatureDewpointHumidityBarometerVisibilityWind DirectionWind SpeedGust SpeedPrecipitationEventsConditions
1:51 AM32.0 °F19.0 °F59 %29.92 in10.0 miNW (310°)12.7 mph23.0 mphClear
2:51 AM32.0 °F19.0 °F59 %29.92 in10.0 miNW (310°)12.7 mph24.2 mphClear
3:51 AM32.0 °F19.9 °F61 %29.93 in10.0 miNW (310°)11.5 mph20.7 mphClear
4:51 AM32.0 °F19.9 °F61 %29.94 in10.0 miVariable6.9 mph16.1 mphClear
5:51 AM32.0 °F19.9 °F61 %29.97 in10.0 miNW (310°)6.9 mphClear
6:51 AM30.9 °F19.9 °F64 %29.99 in10.0 miVariable4.6 mphClear
7:51 AM33.1 °F21.0 °F61 %30.01 in10.0 miVariable6.9 mphClear
8:51 AM35.6 °F21.2 °F56 %30.03 in10.0 miNorthClear
9:51 AM37.0 °F21.0 °F52 %30.01 in10.0 miVariable6.9 mphClear
10:51 AM42.1 °F21.9 °F45 %29.99 in10.0 miVariable5.8 mphClear
11:51 AM44.1 °F23.0 °F43 %29.98 in10.0 miVariable3.5 mphClear
12:51 PM46.9 °F23.0 °F39 %29.97 in10.0 miENE (70°)8.1 mphClear
1:51 PM48.0 °F24.1 °F39 %29.98 in10.0 miNE (50°)8.1 mphClear
2:51 PM48.9 °F24.1 °F38 %29.97 in10.0 miNNE (30°)9.2 mphClear
3:51 PM46.9 °F21.9 °F37 %29.97 in10.0 miNorth (360°)6.9 mphClear
4:51 PM46.0 °F21.9 °F39 %29.97 in10.0 miENE (60°)6.9 mphClear
5:51 PM44.1 °F23.0 °F43 %29.98 in10.0 miENE (60°)5.8 mphClear
6:51 PM44.1 °F24.1 °F45 %30.00 in10.0 miVariable6.9 mphScattered Clouds
7:51 PM43.0 °F23.0 °F45 %30.00 in10.0 miENE (70°)6.9 mphPartly Cloudy
8:51 PM42.1 °F25.0 °F51 %30.00 in10.0 miCalmClear
9:51 PM42.1 °F24.1 °F49 %30.00 in10.0 miVariable5.8 mphOvercast
10:51 PM41.0 °F25.0 °F53 %30.00 in10.0 miSouth (180°)4.6 mphOvercast
11:51 PM41.0 °F26.1 °F55 %29.98 in10.0 miSE (140°)6.9 mphOvercast
Hourly data recorded from KNYC, located miles away from New York - Upper East Side, New York







STORIES FROM OUR PARTNERS